Wind_Speed
12 13 14 15 17 20 22 22 23 24 25 26 27 30 31 32 33 34 33 34 36 37 37 37 35 34 33 32 31 30 29 29 30 30 31 30 28 27 27 27 27 27 28 29 28 29 30 33 34 35 34 34 36 36 36 37 38 39 40 42 44 46 45 44 42 40 39 40 42 44 46 48 48 50 52 52 51 51 50 48 47 46 45 45 43
12 13 14 16 19 21 23 23 24 26 27 28 30 33 34 35 37 37 36 37 38 38 37 36 34 34 33 33 32 31 30 31 31 31 31 30 29 28 28 28 28 28 29 29 30 31 32 34 36 36 35 34 36 37 38 39 41 42 44 46 47 47 46 44 42 41 40 42 44 46 48 50 51 53 53 52 51 49 47 45 46 46 46 45 43
12 14 16 18 20 22 23 25 27 29 30 30 31 32 34 36 38 38 39 41 41 39 36 33 33 33 32 32 32 31 31 32 32 31 30 29 29 30 30 29 29 29 29 30 31 32 33 35 36 35 34 35 36 38 40 41 43 44 46 47 47 46 45 43 42 42 42 43 45 47 49 51 52 52 53 51 50 49 45 44 45 46 46 45 44
14 16 19 21 23 24 25 26 27 26 26 27 27 28 32 35 37 38 40 42 42 40 37 34 32 32 32 32 32 31 32 33 34 32 29 28 30 31 30 30 29 29 29 31 32 33 34 36 35 34 34 36 38 40 41 42 43 45 45 46 46 45 44 43 43 44 44 45 46 48 50 50 50 50 52 52 51 49 46 44 44 45 46 46 45
17 20 21 23 25 26 26 28 28 25 24 26 26 29 32 34 36 39 40 41 42 41 37 35 33 33 34 34 32 33 33 33 34 33 30 29 31 31 30 30 29 29 30 31 32 34 36 36 34 34 36 38 39 41 42 43 44 44 44 44 44 44 44 44 45 46 48 48 48 49 50 50 50 50 51 52 51 49 46 45 44 44 45 45 45
19 21 23 25 26 26 27 30 32 31 29 29 30 32 35 35 36 38 40 41 42 41 39 36 35 36 36 34 33 35 35 34 34 32 29 29 31 30 30 30 29 29 30 31 33 35 36 35 35 37 39 40 41 42 43 44 44 44 44 44 44 44 44 45 47 48 49 50 49 49 50 50 50 49 51 53 52 49 47 45 44 44 44 45 44
20 22 24 25 25 27 29 31 35 36 35 34 36 37 37 37 37 40 42 41 40 41 39 36 34 35 33 33 35 37 35 34 34 30 27 29 30 31 31 30 30 30 31 32 34 36 35 36 37 40 42 41 42 43 44 45 45 44 44 44 45 45 45 46 48 49 50 50 50 50 50 51 50 50 51 52 51 50 48 45 43 43 44 44 44
21 22 23 23 24 27 30 33 37 39 38 37 39 39 37 38 40 42 43 41 40 41 38 33 32 31 31 32 36 35 31 31 29 26 27 30 32 32 31 30 30 31 32 33 35 36 37 38 40 42 42 42 44 45 46 46 46 45 44 45 45 45 46 47 48 48 49 49 50 50 51 51 50 50 51 51 50 49 48 45 42 42 43 43 43
20 21 21 22 24 27 31 34 37 40 40 38 39 39 37 37 39 41 41 42 41 37 32 30 31 32 32 34 35 33 30 29 26 26 29 32 32 32 31 30 31 32 33 35 37 39 41 42 42 42 43 44 45 47 47 47 47 46 45 44 44 45 45 46 47 48 48 49 49 50 50 50 49 49 49 49 48 47 45 43 41 41 41 41 41
21 21 22 24 27 29 32 34 37 40 40 39 40 41 39 39 39 40 40 39 35 32 31 32 32 33 35 35 34 32 29 27 26 28 31 32 32 31 31 31 32 33 34 36 39 42 44 44 44 43 44 45 46 47 48 47 47 46 45 44 44 45 45 45 46 47 48 49 49 49 49 48 47 47 47 46 45 42 41 39 38 38 39 38 38
23 23 25 27 29 32 33 35 37 39 41 42 43 41 39 38 38 36 35 34 31 32 37 38 33 32 34 34 33 30 27 27 29 31 31 31 31 31 31 31 33 34 35 37 41 44 45 45 45 44 45 47 47 48 48 47 46 46 45 45 45 45 45 45 45 47 48 49 48 47 47 45 44 44 43 42 41 38 37 37 36 36 37 36 36
27 28 29 30 31 34 35 36 37 40 42 44 42 37 34 36 36 34 33 34 34 35 40 40 35 31 32 32 30 28 27 30 33 32 31 30 30 31 31 33 34 34 36 38 42 44 44 45 45 46 47 48 48 48 47 46 46 46 46 45 45 45 44 44 45 45 47 48 47 45 45 44 43 42 40 38 37 36 35 35 35 35 35 35 35
32 32 32 32 34 36 38 38 38 40 43 43 41 36 33 34 36 36 36 35 35 36 36 34 30 28 29 30 28 28 30 33 34 33 31 30 30 31 32 33 33 34 37 40 43 44 44 45 46 47 48 48 47 47 46 45 45 45 45 44 44 43 43 43 44 44 45 46 46 44 44 43 41 38 36 35 35 34 34 34 35 34 34 34 33
35 34 33 35 37 39 40 40 40 42 43 43 42 39 34 33 35 36 35 35 37 36 31 27 25 26 28 30 29 30 33 35 36 35 32 30 31 32 33 33 34 36 39 42 45 46 46 47 48 48 47 47 47 46 45 44 43 43 43 43 42 42 42 42 43 43 43 43 43 43 43 42 39 35 33 33 33 33 33 33 33 33 32 31 32
37 35 35 37 40 42 43 43 42 43 44 45 43 38 34 34 34 33 33 35 36 31 25 24 27 29 31 33 33 33 36 37 36 34 31 30 32 33 33 34 36 38 42 45 47 47 47 48 47 47 46 46 45 44 43 42 42 42 42 41 41 41 41 42 42 41 41 41 42 41 40 38 36 33 32 31 31 32 32 31 31 31 29 29 31
37 37 39 41 43 45 45 44 44 44 45 46 44 39 35 35 33 31 31 33 32 26 23 26 30 31 33 35 35 36 36 36 35 33 31 31 32 34 35 37 39 41 44 46 47 47 47 47 46 46 45 45 44 43 42 42 42 41 41 40 40 40 41 40 40 40 40 40 40 39 37 35 33 31 31 30 29 30 30 30 30 30 29 30 32
38 40 44 46 47 48 47 46 46 46 46 45 43 41 37 35 32 30 30 31 29 26 26 29 30 29 29 30 32 33 35 34 33 32 31 31 33 35 37 38 40 43 45 46 47 46 46 46 45 44 43 43 42 42 42 42 41 41 40 39 39 39 40 39 39 39 39 39 39 37 35 34 31 29 29 29 28 29 29 29 29 29 30 32 35
41 44 46 48 50 50 49 48 48 47 45 44 42 41 38 35 32 31 30 30 28 28 28 27 24 22 24 25 28 31 33 34 33 31 31 33 35 36 37 39 41 44 46 47 46 46 45 45 44 42 41 42 42 42 42 41 41 41 40 39 39 39 39 39 38 38 38 38 38 36 34 32 29 28 28 28 28 28 28 28 28 29 32 34 37
44 46 47 49 51 51 50 49 48 47 45 43 41 40 38 35 33 32 31 28 28 28 26 22 19 20 23 25 28 30 32 33 32 31 32 33 34 36 38 40 43 44 45 46 45 45 44 43 42 41 41 42 43 42 42 41 41 40 39 39 39 38 38 38 38 38 38 37 36 34 33 31 29 28 28 28 28 28 27 28 29 31 34 36 38
46 46 48 50 51 51 50 50 48 46 45 43 41 39 38 36 35 33 31 28 27 26 24 21 21 24 26 28 30 31 32 32 31 30 30 32 33 36 39 42 43 45 44 44 44 43 43 42 41 41 43 43 43 43 42 41 40 40 39 38 38 37 37 37 37 37 37 36 34 32 31 30 30 29 28 28 27 27 28 29 31 34 37 38 39
47 47 49 51 52 52 50 48 46 44 44 42 40 39 37 36 35 33 30 28 25 24 24 24 26 30 33 35 34 33 32 31 29 28 30 32 35 38 41 43 44 44 43 43 43 43 42 42 42 43 44 45 44 43 42 41 40 39 39 38 38 37 36 36 37 37 37 35 32 30 30 30 30 29 28 27 27 27 28 31 33 36 39 40 42
48 50 51 52 52 50 47 44 43 43 43 41 39 38 37 36 34 32 30 27 23 22 25 28 31 35 37 36 33 30 28 28 29 31 33 34 37 40 42 44 44 44 43 43 43 43 43 44 44 45 45 45 44 43 42 40 39 39 38 38 37 36 36 36 37 37 37 35 32 29 29 30 29 28 28 27 27 28 29 31 34 36 38 41 44
52 53 53 52 50 46 43 41 41 41 40 39 38 37 36 36 34 32 30 27 23 24 27 30 33 35 35 33 31 28 28 30 33 35 36 37 40 42 43 44 44 44 44 43 43 44 45 45 45 45 45 44 43 43 41 40 39 38 38 38 37 36 36 36 37 37 36 34 31 29 29 29 28 28 27 27 27 28 29 31 33 36 38 40 43
54 53 51 48 44 41 39 39 39 39 39 38 37 36 36 35 34 33 31 29 26 27 29 30 32 32 32 33 32 31 32 35 37 38 39 41 42 43 44 45 45 44 43 43 44 46 46 46 45 45 44 44 43 42 41 40 39 38 38 38 37 36 36 36 36 37 36 32 29 28 28 28 28 27 27 26 27 27 28 30 33 35 37 38 41
51 48 45 43 41 39 39 39 39 38 38 37 37 36 36 35 35 34 33 32 30 30 29 30 32 33 33 33 34 35 37 38 39 40 42 44 44 45 45 44 44 43 43 43 45 47 47 46 45 44 43 43 42 42 41 40 40 38 37 38 37 36 36 35 35 36 34 30 27 27 27 27 27 27 27 26 26 26 27 29 32 35 36 37 38
44 42 41 40 40 40 41 41 40 39 38 38 37 37 36 36 36 36 35 34 32 31 29 30 32 34 33 33 35 38 40 40 41 43 44 46 46 46 45 44 43 43 43 44 47 48 47 45 44 43 42 42 42 42 41 40 39 38 37 37 37 37 36 34 34 34 32 28 26 25 26 27 27 27 27 27 26 27 28 29 32 34 36 36 37
40 39 40 40 40 41 41 40 39 38 38 38 38 37 36 36 36 36 36 35 34 32 30 31 33 34 33 35 38 40 41 42 43 45 47 47 47 45 43 43 43 43 44 47 49 48 46 44 42 42 42 42 41 41 40 39 38 36 36 36 37 37 36 34 33 32 30 27 25 25 26 27 27 27 27 27 27 28 28 30 32 34 35 36 36
40 40 41 41 40 40 40 39 39 39 38 37 37 36 36 36 36 36 36 35 33 32 31 32 34 35 35 38 41 42 43 44 45 46 46 46 44 42 41 41 42 43 46 48 48 46 43 42 41 41 41 41 40 39 39 37 36 35 35 35 36 36 35 33 32 31 29 27 26 27 27 28 28 27 27 28 28 28 29 31 32 33 34 35 37
41 41 41 40 40 40 40 40 39 38 37 37 37 37 37 37 37 37 36 32 29 29 30 33 36 38 40 43 44 44 45 45 44 44 44 43 41 39 40 41 43 46 47 47 45 44 42 41 41 40 40 39 38 37 37 35 34 34 33 34 35 36 35 33 31 30 30 29 28 28 29 29 29 28 27 28 29 29 30 31 32 33 34 35 37
41 41 40 39 39 40 41 42 43 41 39 38 38 37 38 38 37 35 32 28 27 29 33 37 41 43 45 46 46 46 45 44 42 42 41 39 38 39 41 43 45 46 46 45 44 42 41 41 40 39 38 37 36 36 35 34 33 33 33 34 35 35 34 32 30 29 29 29 29 29 29 29 29 28 27 28 29 29 30 31 32 32 33 34 36
39 39 39 39 40 42 43 43 43 42 38 36 37 39 40 38 36 33 30 30 32 36 39 42 44 46 46 47 47 46 44 42 40 40 39 38 38 41 43 45 46 46 45 44 43 42 41 40 38 37 36 35 35 34 34 33 33 33 33 34 34 34 33 31 30 28 28 28 28 27 27 27 28 28 27 27 28 29 30 30 31 31 32 33 34
40 40 40 40 41 42 42 37 33 33 34 36 39 41 39 36 34 34 33 34 37 40 42 43 45 46 46 47 46 44 43 41 40 39 38 38 41 43 46 46 46 45 44 42 41 40 39 38 36 35 34 33 33 33 33 33 33 33 34 34 34 34 33 31 30 29 28 27 27 25 24 25 26 27 27 28 28 28 29 29 29 29 30 32 33
41 41 41 41 41 42 42 38 35 37 41 42 41 40 37 34 34 35 35 36 39 42 43 44 45 45 45 44 43 42 41 40 40 39 39 41 44 46 47 46 45 43 42 40 39 38 36 35 33 33 32 33 33 33 32 32 33 33 34 34 34 33 33 31 30 29 28 27 26 24 23 23 24 26 27 27 28 28 27 27 28 27 28 30 31
42 42 43 43 43 42 43 44 44 45 46 45 43 41 38 35 35 36 37 39 41 42 43 44 44 44 42 41 41 42 43 42 42 41 42 44 46 47 46 45 43 42 40 38 36 35 34 33 31 31 31 32 32 32 32 32 32 33 33 33 33 32 32 30 30 29 28 27 25 24 23 22 23 24 25 26 27 27 26 25 26 26 26 27 29
43 44 44 45 45 45 46 47 47 47 47 48 46 42 37 35 35 37 38 40 41 41 42 42 42 41 40 40 41 44 44 43 43 43 45 47 47 46 45 44 42 40 38 36 34 33 32 31 30 30 31 31 32 32 32 32 32 33 33 33 32 32 31 30 29 29 28 27 25 24 23 23 23 24 24 24 24 25 25 24 24 24 24 25 26
45 46 46 46 47 48 47 47 47 47 46 46 45 41 38 37 39 40 39 39 40 40 41 42 42 41 40 41 43 45 44 44 45 47 48 48 47 46 44 42 40 38 36 34 33 31 30 30 30 30 31 32 32 32 32 32 33 33 33 33 32 31 30 29 29 28 28 27 26 25 24 23 23 24 24 24 24 24 24 23 23 23 23 23 24
46 47 48 49 49 49 49 48 46 44 42 42 43 42 40 40 41 42 40 40 41 41 42 44 43 42 42 44 45 46 45 46 47 49 48 47 46 44 42 39 37 36 34 32 31 30 30 30 30 31 31 32 31 32 32 32 33 33 33 33 32 31 30 29 28 27 27 26 26 25 24 23 23 24 24 24 24 24 24 23 23 23 22 22 22
47 48 49 49 48 46 45 43 41 39 39 40 40 40 41 42 42 43 42 42 43 42 42 43 43 43 44 45 44 44 44 45 47 47 46 44 43 41 38 36 35 35 33 31 30 30 30 31 31 31 32 32 32 32 32 33 33 33 32 33 33 32 30 29 28 27 26 25 25 25 25 24 23 23 23 23 23 23 23 23 23 22 22 21 21
48 48 47 45 42 40 38 37 38 41 42 41 40 41 44 46 46 46 45 43 41 40 41 42 43 44 44 43 42 42 43 44 44 44 42 41 39 37 35 34 34 33 31 30 29 29 30 31 32 32 32 32 32 32 33 33 32 32 32 32 32 32 30 29 28 27 25 25 25 25 25 24 24 23 23 23 23 23 22 22 22 21 21 21 20
48 47 46 45 44 42 41 42 44 44 43 43 44 46 48 49 47 45 42 40 41 42 44 45 46 44 43 42 42 41 42 42 41 40 39 38 36 34 33 32 32 31 30 29 29 29 31 32 33 33 33 33 32 32 32 32 31 31 32 32 31 31 30 29 28 27 25 24 24 25 25 25 24 24 23 23 23 22 22 22 21 21 20 20 19
47 46 46 45 46 45 45 46 46 44 42 43 46 48 48 47 44 42 42 43 45 47 47 47 45 43 42 41 41 40 40 39 38 38 36 35 34 32 32 31 31 31 31 30 30 30 31 33 34 34 34 33 33 32 31 31 30 30 30 30 30 30 29 28 28 27 25 24 24 24 25 25 25 24 24 23 23 23 22 21 21 21 20 19 18
47 47 46 46 46 46 46 45 44 43 43 43 44 46 47 46 44 42 42 43 43 43 43 43 42 40 39 39 38 38 37 37 36 35 33 32 31 31 31 32 32 32 32 31 30 31 33 34 34 34 34 34 33 32 31 30 30 29 29 29 29 28 28 28 27 27 26 25 25 25 25 25 24 24 24 24 23 23 22 21 21 21 20 19 18
47 47 47 46 46 46 45 43 42 42 42 43 45 46 45 43 39 37 36 35 34 35 36 37 36 36 36 36 36 36 35 34 33 31 31 30 31 31 32 32 33 32 32 31 31 31 33 33 33 33 33 33 32 31 30 29 29 28 28 28 27 27 27 27 27 26 26 26 26 26 25 25 24 24 24 24 24 23 23 22 21 20 20 19 18
44 44 45 44 43 41 41 40 39 39 40 42 44 43 40 35 32 31 31 31 31 31 32 32 33 33 34 34 34 32 31 30 29 29 30 31 32 32 32 32 32 32 32 31 30 30 31 31 31 31 31 31 30 29 28 28 27 27 26 26 26 26 26 26 26 26 26 26 26 27 27 26 26 25 24 24 24 24 24 23 21 20 20 19 18
41 41 41 40 38 36 35 35 36 37 38 39 39 37 35 33 33 33 32 32 31 31 31 31 32 32 31 31 30 29 28 28 29 30 31 31 31 31 30 31 31 32 32 31 30 28 28 29 29 29 29 28 27 26 26 25 25 25 25 25 25 25 26 26 26 26 26 27 27 28 29 29 28 27 26 25 25 25 24 23 22 21 20 18 17
37 37 37 37 36 35 33 33 34 35 36 36 36 36 38 40 39 36 34 33 32 32 31 30 29 29 29 28 28 28 28 28 29 30 30 29 28 27 28 29 30 31 31 30 29 27 26 27 27 27 27 26 25 24 23 23 23 23 23 24 24 25 25 26 26 26 27 28 29 29 30 30 29 29 28 26 25 24 24 24 23 21 20 19 17
33 33 33 35 36 35 32 32 33 34 33 33 34 35 36 36 35 33 32 31 30 29 28 27 27 28 28 28 28 27 27 28 28 27 25 25 25 26 27 29 30 30 30 29 28 26 25 25 26 26 25 24 23 22 22 22 22 23 23 24 24 25 25 26 27 27 28 28 28 28 28 28 28 27 27 26 24 23 23 23 22 21 20 19 17
28 29 30 31 32 32 30 31 32 32 32 31 31 31 32 32 30 29 28 28 26 25 25 26 27 28 28 27 27 26 26 25 23 22 22 22 24 25 26 27 28 28 28 28 27 25 24 24 24 24 24 23 22 22 22 22 23 23 24 24 24 25 25 26 26 25 25 24 23 23 23 23 23 23 23 23 22 21 21 21 21 20 19 19 17
25 27 28 29 29 29 29 29 31 32 31 31 30 31 32 31 28 26 25 24 24 24 25 26 26 26 26 25 24 23 21 20 20 20 20 21 22 23 24 25 25 25 26 26 25 24 23 22 23 23 23 23 23 23 23 23 23 23 24 24 24 24 25 24 22 21 20 19 19 19 18 18 18 18 18 18 18 17 18 18 18 18 17 17 16
25 25 26 26 27 27 28 29 30 30 29 27 26 26 26 26 25 23 23 24 24 24 25 25 24 24 23 22 21 19 18 18 19 20 19 19 19 21 22 23 23 24 25 25 24 23 22 21 22 22 23 23 23 23 23 23 23 23 23 24 24 23 22 20 18 16 16 15 15 15 15 15 15 14 14 14 13 13 14 14 15 15 14 14 14
23 22 22 22 23 24 25 25 25 25 24 23 23 23 23 23 24 24 24 24 24 24 24 23 23 22 21 19 18 17 18 18 19 19 19 19 19 19 20 22 23 24 24 24 23 22 21 21 21 21 21 22 22 22 22 22 22 23 23 23 23 21 19 16 14 12 12 12 12 12 12 12 12 12 11 11 11 10 10 10 11 11 11 11 11
Wind_Direction
263 270 277 283 284 285 285 286 292 297 296 297 302 305 304 303 302 301 300 298 297 296 293 290 292 296 295 292 292 293 293 293 291 290 292 294 297 301 300 300 304 308 311 312 312 312 311 312 313 312 309 304 303 302 302 301 301 300 299 299 301 302 301 299 297 293 287 285 284 283 283 284 286 288 287 288 288 288 288 288 288 286 284 281 279
266 274 280 283 284 286 287 290 297 300 301 304 309 311 309 305 301 298 295 296 298 297 293 290 290 292 292 289 289 291 291 290 289 290 292 292 297 299 298 300 305 309 310 309 309 308 308 309 311 310 308 305 303 302 301 301 300 300 300 300 301 301 299 297 296 292 288 284 283 282 282 283 285 286 286 286 287 287 286 286 285 284 282 279 277
270 276 282 285 289 292 294 298 306 310 310 311 312 311 308 303 298 294 291 294 298 296 291 289 288 288 289 288 287 288 289 289 289 289 290 291 296 297 297 300 303 305 306 306 306 306 306 307 307 308 309 307 304 303 302 301 301 301 301 301 300 299 298 297 295 293 291 286 283 282 282 282 284 285 285 286 285 285 285 284 283 282 280 278 276
279 284 288 291 295 298 301 309 318 321 316 311 308 303 299 297 294 293 293 294 296 294 288 286 285 285 286 285 286 287 285 285 287 287 286 289 295 296 295 297 297 299 303 304 304 304 304 305 306 307 308 307 304 303 302 302 302 302 302 301 300 299 298 298 297 296 295 291 286 283 283 283 283 284 285 285 285 285 284 282 280 279 278 276 275
286 289 290 292 296 300 308 316 317 315 308 304 302 298 295 294 294 295 295 294 296 295 290 286 284 286 284 282 287 289 283 281 285 283 280 286 294 295 293 292 292 296 300 302 303 305 305 304 304 306 308 307 306 305 304 304 304 303 302 301 300 300 300 299 298 297 296 293 289 286 284 283 283 284 284 285 285 286 285 283 280 278 276 273 272
289 291 291 293 296 301 308 311 307 303 301 300 298 295 294 295 295 294 293 292 294 295 294 290 286 285 283 280 286 288 281 279 281 279 279 286 291 291 289 288 290 295 298 300 304 306 305 303 303 306 308 308 307 306 306 306 305 304 303 302 302 301 300 298 297 296 295 293 290 287 285 284 284 285 286 286 286 286 285 283 281 278 274 270 268
293 294 294 296 301 304 306 305 303 300 300 301 299 297 295 294 294 296 294 291 289 289 292 292 287 283 279 278 283 286 281 280 280 276 277 284 286 286 286 287 290 294 297 300 303 305 305 303 303 306 308 307 307 307 307 307 307 306 305 304 302 301 299 297 296 295 294 293 291 288 286 286 287 287 287 287 287 286 284 283 280 276 272 268 266
297 297 299 303 308 310 308 306 303 300 300 304 304 305 304 298 297 300 296 291 288 286 288 291 287 280 274 277 285 286 283 285 283 274 274 281 284 285 285 287 291 295 298 301 303 305 305 304 304 306 307 307 308 309 309 309 308 307 305 304 302 300 298 296 295 295 294 292 291 289 288 288 290 289 288 287 287 286 285 284 280 273 268 265 265
302 301 304 308 312 313 311 308 306 304 307 309 307 308 309 303 302 305 303 297 289 284 287 292 288 280 276 280 286 285 282 286 284 277 279 285 286 285 287 290 294 297 299 302 304 306 307 306 305 306 306 307 309 309 310 310 309 308 306 304 302 300 298 297 296 295 293 292 291 290 290 291 291 289 287 287 286 286 285 283 278 273 268 264 263
303 302 304 305 308 311 312 312 312 313 314 312 308 308 306 304 307 311 314 309 292 279 287 295 289 282 280 281 285 285 283 284 283 282 285 286 285 286 290 293 295 298 300 303 306 307 306 305 305 305 306 308 309 310 310 310 309 308 306 304 302 300 298 297 296 295 294 292 292 292 292 292 290 289 288 288 288 286 284 280 276 273 270 267 265
299 300 300 300 304 308 312 314 316 317 317 315 315 314 309 308 311 313 316 317 306 292 293 297 294 285 280 281 283 281 279 280 283 285 285 284 285 287 290 293 295 298 301 304 306 305 304 303 304 305 307 309 310 309 309 309 309 308 307 304 302 300 299 298 297 296 295 294 294 294 293 292 291 290 291 290 288 285 282 279 276 274 272 270 269
297 299 300 300 303 308 312 315 317 318 318 318 320 320 314 311 314 313 311 314 313 306 300 298 294 282 276 279 279 274 275 281 284 286 286 286 286 286 289 292 294 297 300 303 304 304 303 302 303 306 308 309 308 309 310 311 310 309 306 304 302 301 301 300 300 299 299 298 297 296 294 293 292 292 291 288 285 283 281 279 279 277 276 276 274
300 301 302 303 306 308 311 314 316 318 318 316 316 317 312 310 312 312 311 311 311 309 302 295 290 282 278 278 273 271 280 285 286 289 289 287 286 287 290 291 292 295 299 302 304 304 302 303 305 306 307 307 308 310 311 311 309 307 305 304 304 303 303 303 303 302 301 300 300 298 296 295 294 292 289 285 284 283 281 281 281 281 280 280 280
300 302 304 305 306 307 309 312 315 316 315 312 312 314 312 311 313 313 313 311 309 306 298 290 290 291 284 274 268 275 286 288 289 290 287 285 287 288 288 288 291 296 299 302 304 304 304 304 305 305 306 307 309 311 311 310 308 307 306 305 306 306 306 305 305 305 304 302 301 299 297 296 295 291 287 286 285 284 283 282 282 282 282 282 283
298 300 302 304 305 306 308 311 312 312 311 310 311 312 311 313 317 316 313 311 309 304 293 288 293 293 282 273 274 282 287 288 287 285 283 284 286 285 285 288 293 298 301 303 304 304 304 304 304 305 306 308 310 310 310 310 309 308 308 307 308 307 307 307 306 306 306 304 302 301 299 297 294 291 289 289 288 287 286 285 284 283 282 282 285
297 299 302 304 305 306 307 309 310 309 310 310 309 309 310 313 315 313 310 309 307 300 291 292 295 290 280 277 280 284 285 284 283 282 282 283 282 282 285 290 295 300 302 303 304 304 304 303 303 305 307 308 310 310 311 311 310 310 309 309 308 308 307 307 308 308 308 307 305 304 300 296 294 293 293 293 291 289 288 287 286 285 284 286 289
296 299 302 304 306 306 306 307 308 308 308 308 307 308 310 312 312 309 306 306 303 295 291 294 294 288 283 284 286 287 286 285 283 283 282 281 282 284 287 291 297 301 302 302 303 303 303 302 303 305 308 310 311 311 311 312 311 310 310 309 308 308 308 309 310 310 310 310 308 305 300 298 297 296 296 295 293 291 290 288 288 287 289 292 294
297 299 301 304 307 307 306 305 305 306 306 304 304 306 308 310 309 307 306 305 300 294 293 292 289 286 289 294 295 293 290 286 285 284 284 284 285 286 289 295 300 302 302 302 303 302 302 302 304 307 310 312 311 311 312 312 311 310 309 308 308 308 309 311 312 312 313 312 309 305 301 300 300 299 298 297 296 295 293 291 291 291 294 297 298
298 300 302 305 307 306 305 304 303 303 302 301 301 304 306 308 307 308 309 306 299 294 290 283 279 285 294 299 300 296 289 284 283 284 285 286 287 290 295 300 302 302 302 303 302 301 301 303 306 309 312 312 311 311 311 311 310 308 307 307 308 309 311 312 312 313 314 312 308 303 302 302 302 301 301 300 299 298 296 296 297 298 299 302 305
297 299 303 305 305 304 303 301 300 299 298 298 299 302 304 305 306 308 311 308 300 292 281 272 276 288 295 297 297 293 286 281 281 282 284 286 290 296 300 302 302 302 302 301 301 301 303 305 309 312 312 312 312 311 310 309 307 306 305 306 308 310 312 312 313 314 313 310 305 302 302 303 304 303 302 301 300 300 301 302 303 304 305 308 310
297 299 302 303 303 301 299 298 297 295 295 296 298 300 302 302 304 308 312 309 300 286 273 270 279 288 290 291 293 294 288 282 282 284 286 289 295 300 301 302 302 302 302 302 302 304 306 309 311 311 311 311 311 309 307 306 304 303 304 305 308 311 312 312 312 313 312 307 302 300 301 302 302 302 301 301 302 303 305 306 307 309 311 313 314
296 297 299 300 300 298 295 294 294 293 294 296 297 298 299 300 302 307 311 309 297 278 269 271 279 285 287 288 292 295 289 283 286 290 291 294 298 301 302 303 303 303 303 304 305 307 309 310 310 310 310 311 310 307 304 303 302 302 302 304 308 311 312 312 312 312 311 305 300 298 299 300 300 300 301 302 305 306 307 309 311 312 315 317 317
294 294 295 296 296 295 293 293 292 292 293 295 296 297 297 299 302 307 311 309 295 277 273 277 282 287 289 286 287 290 288 287 290 292 293 296 300 303 304 305 305 304 303 305 307 308 309 309 309 308 309 309 307 304 303 302 301 300 301 303 307 310 312 312 312 312 310 303 297 296 298 298 299 299 300 303 306 307 309 312 314 315 317 319 319
293 292 291 291 291 292 292 291 290 291 292 293 294 295 296 299 303 306 309 308 298 287 284 284 285 288 289 284 282 288 292 292 291 291 293 296 301 304 306 305 304 303 304 305 307 307 308 307 307 307 307 307 305 302 301 301 300 300 301 303 307 309 311 311 311 311 308 300 293 294 296 297 299 299 300 304 306 309 312 314 315 316 317 318 319
293 290 287 286 287 289 289 289 289 290 291 292 293 293 295 298 301 304 306 307 303 297 293 287 283 285 287 284 284 290 295 293 288 288 292 296 301 305 305 303 303 303 304 305 305 306 306 305 305 306 306 305 303 302 301 300 299 299 301 303 306 308 309 310 310 311 308 299 291 293 296 298 299 299 301 305 307 310 313 315 316 316 316 318 320
291 288 285 284 285 286 286 286 287 288 289 290 290 291 294 296 298 302 304 305 303 298 291 285 282 284 285 286 289 293 294 291 286 287 292 298 302 303 302 301 301 302 303 304 305 306 305 304 304 306 306 304 303 302 302 301 300 300 302 304 306 307 308 309 310 312 309 300 291 293 297 299 300 300 302 306 307 310 313 316 316 316 316 319 321
287 285 283 283 284 285 285 285 286 286 287 287 288 290 292 295 298 301 303 303 300 294 287 284 285 286 287 290 292 292 291 289 287 289 294 298 300 300 298 298 300 301 302 303 304 304 303 304 305 305 304 303 303 302 302 302 301 303 304 304 305 306 306 308 309 311 311 303 294 293 298 300 300 301 303 304 306 309 313 316 316 316 318 321 322
283 283 283 283 283 283 283 284 284 284 285 286 288 291 293 295 298 299 300 298 294 288 283 283 285 287 289 291 291 290 289 290 290 293 296 297 297 296 295 297 300 301 302 303 303 303 304 304 304 304 303 302 302 302 303 303 303 304 305 305 305 305 305 306 308 310 311 306 298 294 295 297 299 301 302 303 305 309 312 315 316 318 320 323 324
282 283 282 282 282 282 282 282 283 285 287 288 289 290 293 296 298 298 296 291 284 280 282 283 284 287 290 291 291 291 292 293 295 296 296 294 293 293 295 299 301 301 302 302 303 304 303 303 302 301 301 301 302 303 304 304 305 305 305 304 303 303 303 305 307 309 309 307 303 296 292 293 295 298 301 303 306 309 311 314 317 319 323 326 327
281 281 280 280 280 280 281 283 285 285 285 285 287 289 293 296 297 296 290 283 277 277 282 286 287 288 289 290 291 293 295 296 297 295 292 290 290 293 298 301 301 301 302 304 304 303 301 300 299 299 299 300 302 303 304 304 305 304 303 302 302 301 302 304 306 307 306 305 305 301 294 289 290 293 298 302 305 308 310 313 317 320 323 326 329
278 277 277 278 279 280 283 288 287 280 277 280 287 292 295 295 293 289 285 282 281 281 284 287 288 287 288 290 291 293 295 296 294 291 288 288 291 296 300 301 301 302 304 304 303 300 298 297 297 297 299 300 302 303 304 304 304 303 302 301 300 300 301 302 304 305 304 304 307 306 299 290 287 290 296 300 303 306 309 313 316 319 323 327 331
276 276 277 278 279 280 285 290 285 275 277 286 291 293 294 292 287 284 283 282 281 282 285 287 287 286 287 289 291 294 295 293 291 288 287 289 294 299 301 301 302 303 303 302 300 299 297 296 296 297 298 299 301 303 303 303 303 302 301 301 300 300 301 302 303 304 304 305 308 310 306 297 290 291 296 299 302 306 309 312 315 319 323 328 332
276 277 278 279 280 282 284 286 282 280 284 290 291 290 289 285 282 281 280 280 280 282 285 286 286 286 287 289 292 294 294 292 290 288 289 293 297 300 301 301 302 303 302 301 300 298 297 296 296 296 297 299 301 302 303 303 302 302 301 301 300 300 300 301 302 303 304 306 308 311 311 305 299 297 298 299 302 304 307 310 314 318 323 329 333
277 279 280 281 282 283 284 285 285 286 288 291 292 290 286 282 280 280 280 281 282 284 284 285 284 285 286 289 292 293 291 289 287 287 291 297 299 300 301 302 303 303 302 301 301 299 298 296 296 295 296 298 300 301 302 301 301 301 301 300 299 299 299 300 301 302 303 305 307 309 310 308 305 302 301 301 303 304 306 309 313 317 323 329 333
278 280 281 281 282 283 283 284 286 287 288 290 291 288 283 280 280 280 280 281 283 283 283 283 283 283 284 287 290 291 289 286 284 288 294 299 300 301 302 303 304 303 303 302 301 299 297 296 294 294 296 298 299 300 300 299 299 300 300 300 299 298 298 299 301 301 302 303 305 306 306 306 304 303 302 302 303 304 306 308 311 315 323 329 333
279 279 280 281 282 284 285 287 287 287 288 288 288 285 281 279 279 280 280 281 281 280 280 280 280 280 281 283 286 288 287 285 286 291 297 299 300 302 303 304 303 303 302 301 299 298 296 295 294 294 295 297 298 298 298 298 298 299 300 299 298 298 298 299 300 299 300 302 304 305 305 304 303 302 302 302 303 303 305 307 310 314 321 328 331
279 280 281 283 285 287 289 290 288 286 287 289 287 282 277 276 278 280 281 281 279 276 274 273 275 276 279 282 285 285 285 285 288 292 296 298 300 302 302 302 302 301 300 299 298 296 295 294 293 293 294 295 296 296 296 296 297 298 299 299 298 298 298 299 299 299 299 300 302 303 304 304 303 303 303 303 304 305 306 307 310 313 319 326 330
280 282 284 285 287 289 290 289 287 286 288 288 284 277 275 276 278 278 279 278 275 272 271 272 275 278 281 284 286 285 284 286 288 292 295 298 299 300 300 300 300 299 298 297 296 295 294 293 292 293 294 294 295 295 295 295 296 297 297 297 297 297 298 298 299 299 298 298 300 302 303 303 303 303 303 303 304 305 306 307 310 313 317 324 330
284 285 286 287 288 288 285 281 282 287 289 285 278 273 275 278 277 276 276 275 272 270 272 276 279 281 284 285 285 284 285 288 291 293 295 296 297 298 298 298 298 299 298 296 294 294 293 292 291 292 293 293 293 293 293 294 295 295 295 295 295 296 296 297 297 297 296 296 298 299 301 302 302 301 302 302 303 305 306 307 309 313 316 321 327
285 285 286 285 285 285 281 278 280 285 285 281 277 276 277 277 275 273 273 272 271 272 276 279 281 283 284 284 284 286 288 290 292 293 294 295 296 296 296 296 297 298 297 296 294 293 292 290 291 292 292 292 292 291 291 292 292 292 293 293 293 294 295 294 294 295 295 295 295 296 297 299 299 299 299 300 301 303 306 307 308 312 315 318 323
283 283 283 282 282 282 281 280 282 283 280 278 278 277 276 274 272 272 273 275 275 277 279 282 283 283 283 284 286 288 290 292 293 293 294 295 295 294 295 296 297 297 296 295 294 292 291 290 290 290 291 290 290 290 290 291 291 291 291 292 292 292 293 292 292 293 293 294 294 294 294 296 297 297 298 299 300 301 304 306 307 310 312 315 319
281 281 280 279 279 279 279 280 281 281 278 275 273 271 271 271 272 274 278 280 280 280 281 281 281 281 282 284 287 289 290 291 292 293 294 294 293 294 295 296 297 297 297 296 294 292 290 289 289 289 289 289 290 290 291 291 291 291 291 292 292 292 292 292 291 291 293 294 294 294 294 294 295 296 296 298 299 300 302 304 305 307 310 313 316
280 280 279 279 279 279 279 279 278 278 277 274 269 267 268 270 273 276 280 282 282 282 281 279 279 281 283 284 286 288 289 290 291 292 292 292 293 296 297 298 298 298 297 295 294 291 290 290 290 290 290 290 291 292 293 292 293 293 293 293 293 293 292 291 291 292 293 294 294 295 295 294 294 294 294 295 297 298 299 301 303 305 307 310 313
280 279 279 279 278 277 277 277 276 276 276 274 268 264 264 268 274 278 280 281 282 281 280 279 280 281 282 283 285 286 288 289 290 291 292 294 297 299 299 299 299 298 297 295 294 292 291 291 292 291 292 293 293 293 293 293 293 294 294 294 293 292 292 292 292 292 293 294 294 294 294 294 294 293 292 292 293 295 296 297 299 301 303 306 309
281 280 279 277 275 275 276 277 276 275 274 272 267 264 268 278 285 286 283 282 282 281 280 279 280 281 281 282 284 285 287 289 290 292 295 297 299 300 300 299 299 298 297 296 295 294 293 293 293 293 294 294 294 294 294 294 294 294 294 293 293 292 292 292 293 293 293 293 293 293 292 292 292 291 290 289 290 290 292 294 295 297 300 302 304
282 281 278 275 274 274 275 275 275 276 276 274 273 275 280 285 287 285 283 282 283 281 279 279 280 281 282 283 285 286 288 290 293 295 297 299 300 301 301 300 299 298 298 297 296 295 295 294 294 294 295 295 295 295 295 295 294 294 294 293 293 293 293 293 293 294 294 293 292 291 290 290 289 288 287 287 286 286 287 290 292 293 296 298 300
283 281 277 274 274 274 274 273 273 277 279 281 283 286 287 287 286 284 283 282 281 280 279 279 281 282 284 285 286 288 290 293 295 297 299 301 302 303 302 302 301 300 298 296 295 295 294 294 294 295 295 296 296 295 295 294 294 294 293 293 293 293 294 295 295 295 294 293 292 291 290 289 288 287 286 285 283 282 282 284 287 289 291 293 295
284 281 278 275 273 273 272 271 272 275 280 284 287 289 290 289 288 286 283 281 280 280 280 280 281 282 284 286 288 290 292 293 295 297 300 303 306 306 306 306 305 302 298 294 293 293 293 293 293 293 294 294 295 294 294 294 293 293 293 293 293 294 296 297 297 296 295 295 295 294 294 293 292 290 287 285 282 278 277 278 281 283 285 288 290
285 282 279 276 274 271 270 271 273 278 282 286 288 287 286 285 283 281 280 280 280 281 280 280 281 283 285 287 289 290 290 291 293 297 302 306 309 311 312 312 309 304 299 295 293 293 292 291 291 291 291 292 292 292 292 293 293 292 292 293 295 297 298 298 297 297 297 298 299 299 299 298 296 294 291 288 283 278 274 273 275 277 279 282 284
287 284 281 279 277 275 274 276 279 283 286 288 287 285 282 280 279 279 280 281 281 282 282 282 283 285 286 286 286 285 286 289 294 298 303 308 313 316 317 315 313 309 305 301 298 296 294 292 291 291 291 290 290 291 291 292 292 292 292 294 297 299 298 296 296 298 300 302 304 303 303 303 302 301 300 298 292 284 277 273 273 274 274 276 278
286 284 282 280 279 279 279 280 282 284 285 284 283 283 283 283 284 285 285 284 284 284 284 285 285 285 284 283 282 282 286 290 294 298 304 309 314 318 319 319 319 317 314 310 306 302 298 295 293 292 291 291 290 290 291 290 290 291 293 296 298 297 295 293 295 300 305 309 312 312 311 312 313 314 315 313 308 301 291 283 279 277 274 273 274
Height
5893 5893 5893 5892 5892 5892 5891 5890 5890 5889 5888 5887 5886 5886 5884 5884 5882 5880 5879 5878 5878 5878 5878 5877 5876 5876 5874 5873 5872 5871 5870 5870 5869 5868 5866 5865 5864 5862 5861 5860 5858 5857 5856 5854 5854 5852 5850 5848 5846 5846 5844 5842 5840 5838 5837 5836 5834 5832 5830 5828 5826 5825 5823 5820 5819 5816 5814 5812 5810 5808 5806 5804 5803 5800 5798 5796 5795 5793 5792 5790 5789 5788 5788 5788 5788
5891 5890 5890 5890 5890 5888 5888 5888 5887 5886 5885 5884 5884 5884 5882 5880 5878 5877 5876 5874 5874 5874 5873 5872 5872 5872 5870 5868 5867 5866 5866 5866 5865 5864 5862 5861 5860 5859 5858 5856 5854 5853 5852 5851 5850 5849 5847 5844 5842 5841 5840 5838 5835 5834 5832 5830 5828 5826 5824 5822 5820 5819 5817 5814 5812 5810 5808 5806 5804 5803 5800 5798 5796 5793 5790 5790 5788 5786 5786 5784 5782 5782 5781 5781 5781
5888 5888 5888 5887 5886 5886 5886 5885 5885 5884 5883 5882 5882 5880 5878 5876 5874 5874 5872 5870 5870 5869 5868 5868 5868 5868 5866 5864 5863 5862 5862 5862 5860 5859 5858 5857 5856 5855 5854 5852 5851 5850 5848 5848 5846 5845 5842 5840 5838 5836 5834 5832 5831 5829 5828 5826 5824 5821 5819 5816 5814 5812 5810 5808 5806 5804 5802 5800 5798 5796 5794 5792 5790 5787 5784 5782 5782 5780 5779 5778 5776 5775 5774 5774 5774
5886 5885 5884 5884 5884 5883 5884 5884 5883 5882 5880 5879 5878 5876 5874 5872 5870 5870 5868 5866 5866 5864 5864 5864 5864 5862 5862 5860 5859 5858 5858 5857 5856 5854 5854 5853 5852 5852 5850 5849 5848 5846 5845 5844 5842 5840 5838 5836 5834 5832 5830 5828 5826 5824 5822 5820 5818 5816 5813 5810 5808 5806 5804 5802 5799 5796 5794 5792 5790 5788 5787 5785 5784 5781 5777 5775 5774 5773 5772 5772 5770 5769 5768 5768 5767
5882 5882 5881 5880 5880 5880 5881 5880 5878 5878 5877 5876 5874 5872 5870 5868 5866 5865 5864 5862 5860 5860 5859 5858 5858 5858 5857 5856 5855 5854 5854 5853 5852 5850 5850 5850 5849 5848 5847 5846 5844 5842 5841 5840 5838 5836 5834 5832 5830 5828 5826 5824 5821 5818 5816 5814 5812 5810 5808 5804 5802 5800 5797 5794 5792 5789 5786 5785 5783 5781 5779 5778 5776 5774 5771 5768 5766 5766 5766 5764 5764 5764 5762 5761 5760
5878 5878 5878 5878 5878 5878 5878 5876 5872 5872 5872 5871 5869 5866 5864 5864 5862 5860 5860 5858 5856 5854 5854 5854 5853 5852 5852 5852 5851 5850 5849 5848 5847 5846 5846 5846 5846 5844 5844 5842 5840 5838 5836 5835 5834 5832 5830 5828 5826 5824 5821 5818 5816 5813 5810 5808 5806 5804 5802 5799 5796 5794 5790 5788 5784 5782 5779 5777 5776 5774 5772 5770 5770 5768 5764 5760 5760 5760 5758 5758 5758 5756 5756 5754 5754
5876 5876 5875 5875 5875 5874 5872 5870 5868 5866 5866 5866 5864 5862 5860 5860 5858 5856 5854 5853 5852 5850 5849 5849 5848 5846 5846 5846 5846 5845 5844 5844 5842 5842 5842 5842 5841 5840 5838 5837 5835 5834 5832 5830 5830 5828 5826 5824 5822 5819 5816 5814 5811 5808 5805 5803 5800 5798 5796 5792 5790 5787 5784 5780 5777 5774 5772 5770 5768 5767 5765 5764 5762 5760 5757 5754 5752 5752 5750 5751 5751 5750 5748 5747 5747
5873 5872 5872 5872 5872 5870 5868 5866 5864 5861 5861 5862 5859 5857 5856 5856 5853 5851 5849 5848 5847 5846 5845 5844 5843 5842 5842 5842 5840 5840 5840 5838 5838 5838 5838 5837 5836 5835 5834 5832 5830 5828 5828 5826 5825 5824 5822 5820 5816 5814 5811 5808 5805 5802 5800 5797 5794 5792 5790 5786 5784 5780 5776 5773 5770 5768 5765 5762 5761 5760 5758 5756 5755 5752 5749 5747 5746 5744 5742 5742 5744 5742 5740 5740 5740
5870 5870 5869 5868 5868 5866 5864 5862 5860 5858 5857 5857 5854 5852 5852 5850 5848 5846 5844 5842 5840 5840 5840 5840 5840 5838 5838 5837 5836 5836 5835 5834 5834 5834 5833 5832 5831 5830 5829 5828 5826 5824 5824 5822 5821 5819 5817 5814 5812 5809 5806 5803 5800 5797 5794 5792 5789 5786 5783 5780 5776 5773 5770 5766 5763 5760 5758 5755 5754 5752 5750 5749 5746 5744 5742 5740 5738 5737 5736 5734 5734 5734 5734 5734 5734
5868 5867 5866 5866 5864 5863 5861 5859 5858 5855 5854 5852 5850 5848 5847 5845 5844 5842 5838 5836 5835 5836 5836 5836 5836 5834 5833 5832 5832 5832 5831 5830 5830 5829 5828 5827 5826 5825 5824 5822 5821 5820 5819 5818 5816 5814 5812 5810 5806 5804 5800 5798 5795 5792 5789 5786 5784 5780 5776 5773 5770 5766 5763 5760 5757 5754 5750 5748 5747 5745 5743 5741 5738 5736 5735 5733 5731 5730 5728 5727 5727 5726 5726 5727 5728
5865 5864 5864 5862 5860 5859 5858 5856 5854 5852 5850 5846 5845 5845 5844 5842 5841 5839 5836 5834 5832 5832 5832 5830 5830 5830 5828 5828 5828 5828 5827 5826 5824 5824 5823 5822 5822 5821 5820 5818 5817 5816 5814 5813 5812 5809 5807 5804 5801 5798 5795 5792 5790 5786 5784 5780 5777 5774 5770 5767 5764 5760 5757 5754 5751 5748 5744 5742 5740 5738 5736 5734 5732 5730 5728 5726 5724 5723 5722 5720 5720 5720 5720 5720 5722
5862 5861 5860 5858 5857 5855 5854 5852 5851 5848 5846 5844 5842 5843 5842 5840 5838 5836 5834 5832 5830 5828 5827 5826 5826 5825 5824 5824 5824 5824 5822 5821 5820 5818 5818 5818 5817 5816 5816 5814 5812 5811 5810 5808 5806 5804 5802 5798 5796 5793 5790 5787 5784 5781 5778 5774 5770 5767 5764 5760 5757 5754 5750 5748 5744 5742 5739 5736 5734 5732 5728 5726 5726 5724 5722 5720 5718 5717 5716 5714 5714 5714 5714 5714 5714
5858 5857 5856 5854 5852 5850 5849 5848 5847 5844 5842 5840 5840 5840 5838 5836 5834 5832 5830 5828 5826 5824 5822 5822 5822 5822 5821 5820 5819 5818 5818 5816 5815 5814 5814 5813 5812 5812 5810 5809 5808 5806 5805 5803 5801 5798 5796 5793 5790 5787 5784 5782 5778 5775 5772 5768 5764 5761 5758 5754 5750 5746 5744 5740 5738 5736 5734 5730 5728 5725 5722 5720 5720 5718 5716 5714 5712 5711 5710 5709 5708 5708 5708 5708 5708
5854 5852 5852 5850 5848 5846 5845 5844 5842 5840 5838 5836 5835 5834 5834 5832 5830 5826 5824 5822 5820 5819 5818 5818 5819 5818 5816 5815 5814 5814 5812 5812 5810 5810 5808 5808 5807 5806 5806 5804 5802 5802 5800 5798 5795 5792 5790 5787 5784 5782 5778 5776 5772 5769 5766 5762 5758 5755 5750 5747 5744 5740 5737 5734 5732 5730 5728 5725 5722 5720 5716 5714 5714 5712 5710 5708 5706 5706 5704 5704 5704 5702 5702 5702 5702
5850 5848 5846 5845 5843 5842 5840 5839 5838 5836 5834 5832 5830 5830 5828 5826 5824 5822 5820 5818 5817 5816 5815 5815 5815 5814 5812 5810 5810 5808 5808 5806 5805 5804 5803 5802 5802 5802 5801 5799 5798 5796 5794 5792 5789 5786 5784 5782 5779 5776 5773 5770 5766 5763 5760 5756 5752 5748 5744 5740 5738 5734 5732 5730 5727 5724 5722 5720 5716 5714 5712 5710 5708 5706 5704 5704 5702 5700 5699 5699 5698 5697 5697 5697 5696
5844 5843 5842 5840 5839 5838 5836 5834 5833 5830 5828 5826 5826 5825 5824 5822 5820 5819 5818 5816 5814 5812 5812 5811 5810 5808 5807 5806 5805 5804 5803 5802 5800 5800 5799 5798 5798 5797 5796 5794 5792 5791 5788 5786 5783 5780 5778 5776 5774 5771 5768 5764 5760 5756 5753 5750 5746 5742 5739 5735 5732 5730 5727 5725 5722 5720 5717 5714 5711 5708 5706 5704 5702 5701 5700 5698 5698 5696 5694 5694 5692 5691 5691 5690 5690
5840 5838 5837 5836 5834 5832 5830 5829 5827 5825 5824 5822 5820 5819 5818 5818 5816 5816 5814 5812 5810 5808 5808 5806 5805 5804 5803 5802 5801 5800 5799 5798 5796 5796 5795 5794 5794 5793 5792 5790 5788 5786 5783 5780 5778 5776 5774 5771 5768 5766 5762 5758 5754 5750 5747 5744 5740 5737 5734 5730 5728 5725 5722 5720 5718 5714 5712 5709 5706 5703 5701 5699 5698 5697 5696 5694 5692 5691 5690 5688 5688 5686 5685 5684 5682
5834 5832 5832 5830 5828 5826 5824 5823 5822 5820 5818 5817 5814 5814 5814 5813 5812 5811 5809 5807 5805 5804 5803 5802 5800 5800 5799 5798 5797 5796 5794 5794 5792 5792 5791 5790 5789 5788 5786 5784 5782 5780 5778 5775 5772 5770 5768 5766 5763 5760 5756 5752 5748 5744 5741 5738 5734 5732 5728 5726 5724 5721 5718 5715 5712 5710 5707 5704 5701 5698 5696 5695 5694 5693 5692 5690 5688 5686 5685 5684 5682 5681 5680 5678 5676
5828 5826 5825 5824 5822 5820 5818 5816 5816 5814 5814 5812 5810 5809 5808 5808 5806 5806 5804 5802 5800 5799 5798 5797 5796 5796 5794 5794 5792 5791 5790 5788 5788 5788 5786 5786 5784 5782 5781 5779 5777 5774 5772 5769 5766 5764 5762 5760 5757 5754 5750 5746 5742 5739 5736 5732 5730 5727 5724 5722 5720 5716 5714 5711 5708 5705 5702 5700 5697 5694 5692 5692 5690 5689 5688 5686 5684 5682 5680 5678 5677 5675 5673 5672 5669
5822 5820 5819 5817 5816 5814 5812 5810 5810 5809 5808 5807 5806 5804 5804 5802 5801 5800 5798 5797 5796 5794 5794 5792 5792 5790 5789 5788 5786 5784 5784 5784 5784 5784 5782 5782 5780 5778 5776 5774 5771 5768 5766 5764 5761 5758 5756 5754 5751 5748 5744 5741 5737 5734 5731 5728 5726 5722 5720 5718 5716 5712 5710 5706 5704 5702 5698 5696 5694 5692 5689 5688 5686 5685 5684 5682 5680 5678 5676 5674 5672 5669 5666 5664 5662
5817 5815 5813 5811 5810 5808 5806 5805 5804 5803 5802 5802 5800 5800 5798 5797 5796 5795 5794 5792 5791 5790 5789 5788 5787 5785 5783 5782 5780 5780 5780 5780 5780 5779 5778 5777 5776 5773 5770 5768 5765 5762 5760 5758 5756 5752 5750 5747 5744 5742 5738 5736 5732 5729 5726 5724 5722 5718 5716 5714 5711 5708 5705 5702 5700 5698 5695 5692 5690 5688 5686 5684 5683 5681 5680 5678 5676 5674 5672 5670 5666 5664 5660 5657 5654
5811 5809 5808 5806 5804 5802 5800 5799 5798 5798 5797 5796 5795 5794 5792 5792 5790 5790 5789 5788 5786 5786 5784 5784 5782 5779 5777 5776 5776 5776 5776 5776 5775 5774 5773 5772 5770 5768 5765 5762 5760 5757 5754 5752 5750 5746 5744 5741 5738 5736 5732 5730 5727 5724 5722 5720 5717 5714 5712 5710 5707 5704 5701 5698 5696 5694 5691 5688 5686 5684 5682 5681 5680 5678 5676 5674 5672 5670 5668 5666 5662 5659 5656 5652 5647
5804 5803 5802 5800 5798 5796 5794 5794 5793 5792 5792 5790 5790 5788 5787 5786 5785 5784 5783 5782 5782 5780 5779 5778 5776 5775 5772 5770 5770 5771 5770 5770 5770 5768 5768 5766 5764 5762 5760 5756 5754 5752 5749 5746 5744 5742 5738 5736 5732 5730 5727 5724 5722 5720 5717 5715 5712 5710 5708 5705 5702 5700 5697 5694 5692 5690 5687 5684 5682 5681 5679 5677 5676 5674 5672 5670 5668 5666 5664 5662 5659 5656 5652 5649 5644
5798 5796 5794 5794 5792 5790 5790 5788 5788 5788 5786 5786 5784 5783 5782 5780 5780 5779 5778 5778 5776 5775 5774 5773 5772 5771 5768 5766 5766 5766 5766 5765 5764 5764 5762 5760 5758 5756 5754 5751 5748 5746 5744 5742 5739 5736 5734 5730 5728 5724 5722 5720 5718 5714 5712 5710 5708 5706 5703 5700 5698 5696 5692 5690 5688 5686 5682 5680 5678 5678 5676 5674 5672 5670 5668 5666 5664 5663 5661 5658 5656 5652 5650 5648 5643
5790 5789 5788 5788 5786 5786 5784 5784 5783 5782 5781 5780 5778 5778 5777 5776 5775 5774 5774 5773 5772 5770 5770 5769 5768 5766 5764 5763 5762 5763 5762 5761 5760 5759 5757 5754 5752 5750 5748 5746 5744 5741 5738 5736 5734 5732 5728 5725 5722 5720 5718 5715 5712 5710 5708 5706 5703 5700 5698 5696 5694 5692 5688 5686 5684 5682 5678 5676 5675 5674 5672 5670 5668 5666 5664 5663 5661 5660 5658 5656 5653 5650 5648 5644 5641
5784 5783 5782 5782 5781 5780 5780 5779 5778 5776 5776 5774 5773 5772 5772 5771 5770 5770 5768 5768 5767 5766 5766 5764 5763 5762 5761 5760 5760 5759 5758 5758 5756 5754 5752 5748 5746 5744 5742 5740 5738 5736 5734 5732 5729 5726 5723 5720 5718 5715 5712 5710 5708 5705 5703 5700 5698 5696 5694 5692 5690 5687 5684 5682 5680 5678 5675 5673 5672 5670 5669 5667 5666 5663 5661 5660 5658 5656 5654 5652 5650 5647 5644 5641 5638
5780 5778 5778 5777 5776 5775 5774 5773 5772 5771 5770 5768 5768 5767 5766 5766 5765 5764 5764 5762 5762 5762 5760 5759 5758 5757 5756 5756 5756 5754 5754 5752 5750 5748 5746 5743 5741 5740 5738 5736 5734 5731 5729 5726 5724 5720 5718 5716 5712 5710 5707 5704 5702 5700 5698 5696 5694 5691 5689 5687 5685 5683 5680 5678 5676 5674 5672 5670 5668 5667 5666 5664 5662 5660 5658 5656 5654 5652 5650 5649 5647 5644 5640 5638 5634
5774 5774 5772 5772 5770 5769 5768 5767 5766 5766 5764 5764 5763 5762 5762 5761 5760 5760 5758 5758 5757 5756 5755 5754 5754 5753 5752 5752 5751 5749 5748 5746 5744 5742 5740 5738 5736 5734 5733 5731 5728 5726 5724 5720 5718 5715 5712 5710 5707 5704 5702 5700 5698 5696 5693 5691 5688 5686 5684 5682 5681 5679 5677 5674 5672 5670 5668 5667 5666 5664 5662 5660 5658 5657 5655 5653 5651 5649 5647 5646 5643 5640 5636 5633 5630
5770 5768 5768 5766 5764 5763 5762 5760 5760 5760 5759 5758 5758 5758 5756 5756 5755 5754 5753 5752 5752 5751 5750 5749 5748 5748 5748 5746 5744 5742 5740 5739 5738 5736 5734 5732 5731 5730 5728 5726 5723 5720 5718 5714 5712 5710 5707 5704 5702 5699 5697 5694 5692 5690 5688 5686 5684 5682 5680 5679 5677 5676 5673 5671 5669 5668 5665 5664 5662 5660 5658 5656 5655 5654 5652 5650 5648 5646 5644 5642 5640 5636 5633 5629 5625
5764 5763 5762 5760 5759 5758 5756 5754 5754 5754 5754 5752 5752 5752 5751 5750 5750 5749 5748 5748 5748 5747 5746 5744 5743 5742 5742 5740 5738 5736 5735 5734 5732 5730 5728 5727 5726 5724 5722 5720 5717 5714 5711 5708 5706 5704 5701 5698 5696 5694 5692 5690 5688 5686 5684 5682 5680 5679 5677 5675 5674 5672 5670 5668 5666 5664 5662 5660 5658 5656 5654 5653 5652 5650 5648 5646 5644 5643 5641 5638 5636 5633 5630 5626 5622
5758 5758 5756 5756 5754 5752 5751 5750 5748 5746 5746 5746 5746 5746 5745 5744 5744 5744 5744 5744 5743 5742 5742 5741 5739 5737 5736 5734 5732 5730 5730 5728 5727 5725 5723 5722 5720 5719 5716 5714 5711 5708 5706 5703 5700 5698 5696 5693 5691 5689 5687 5686 5684 5682 5680 5678 5677 5675 5673 5672 5670 5668 5666 5664 5662 5661 5658 5656 5654 5652 5650 5649 5648 5646 5646 5644 5642 5640 5638 5636 5634 5630 5626 5623 5620
5752 5752 5751 5750 5750 5748 5747 5747 5744 5741 5740 5741 5741 5740 5740 5739 5738 5738 5738 5738 5738 5738 5736 5735 5734 5731 5730 5728 5727 5726 5725 5723 5722 5720 5718 5716 5715 5713 5710 5708 5704 5702 5700 5697 5694 5692 5690 5688 5686 5684 5682 5681 5680 5678 5676 5674 5673 5671 5669 5667 5666 5664 5662 5660 5659 5658 5655 5653 5651 5649 5647 5646 5644 5643 5642 5640 5639 5638 5636 5633 5631 5628 5624 5620 5617
5748 5746 5746 5745 5744 5743 5742 5742 5742 5738 5736 5736 5735 5734 5734 5734 5733 5733 5733 5734 5734 5732 5730 5728 5727 5725 5724 5723 5722 5721 5720 5718 5716 5714 5712 5711 5709 5707 5704 5702 5698 5696 5694 5692 5689 5686 5684 5682 5680 5679 5678 5677 5676 5674 5672 5670 5668 5666 5665 5663 5662 5660 5658 5657 5656 5654 5652 5650 5648 5646 5644 5642 5641 5640 5638 5637 5636 5634 5633 5630 5628 5626 5622 5619 5616
5742 5741 5740 5739 5738 5738 5736 5736 5735 5733 5731 5730 5729 5728 5728 5728 5727 5726 5726 5726 5726 5724 5723 5722 5720 5719 5718 5718 5716 5716 5714 5712 5710 5708 5707 5705 5703 5700 5698 5696 5692 5690 5688 5686 5683 5681 5679 5677 5676 5675 5674 5672 5671 5669 5668 5666 5664 5662 5660 5659 5658 5656 5655 5653 5652 5650 5648 5646 5644 5642 5641 5640 5638 5637 5636 5634 5632 5631 5630 5628 5626 5624 5621 5618 5614
5736 5736 5734 5734 5732 5732 5730 5730 5728 5727 5725 5724 5724 5723 5722 5722 5722 5721 5720 5719 5718 5718 5716 5716 5714 5714 5713 5712 5711 5710 5708 5706 5704 5703 5701 5699 5696 5694 5692 5689 5686 5684 5682 5680 5678 5676 5674 5672 5672 5670 5670 5668 5666 5664 5663 5661 5660 5658 5656 5655 5654 5652 5651 5650 5648 5646 5644 5643 5641 5640 5638 5637 5636 5634 5633 5632 5630 5628 5627 5626 5624 5622 5620 5616 5614
5730 5729 5728 5728 5726 5725 5724 5723 5722 5720 5719 5718 5717 5716 5716 5716 5715 5714 5714 5713 5712 5711 5710 5710 5708 5708 5707 5706 5705 5704 5702 5700 5698 5696 5694 5692 5690 5688 5685 5682 5680 5678 5676 5674 5672 5671 5670 5668 5667 5666 5665 5664 5662 5660 5658 5656 5655 5654 5652 5651 5650 5648 5648 5646 5644 5643 5641 5640 5638 5636 5635 5634 5632 5632 5630 5629 5628 5626 5624 5624 5622 5620 5618 5616 5613
5724 5722 5721 5720 5719 5718 5718 5716 5715 5714 5714 5713 5712 5710 5708 5708 5708 5708 5708 5707 5706 5705 5704 5703 5702 5702 5701 5700 5699 5698 5696 5694 5692 5690 5688 5686 5684 5681 5678 5676 5674 5673 5671 5670 5668 5666 5665 5664 5663 5662 5660 5658 5657 5656 5654 5652 5650 5649 5648 5647 5646 5644 5644 5642 5641 5640 5638 5636 5635 5634 5632 5631 5630 5628 5627 5626 5624 5623 5622 5620 5619 5617 5616 5614 5612
5717 5716 5714 5714 5713 5714 5713 5711 5708 5708 5709 5710 5709 5706 5704 5702 5702 5702 5702 5701 5700 5699 5698 5698 5697 5696 5696 5694 5693 5692 5690 5688 5686 5684 5682 5680 5678 5676 5674 5672 5670 5668 5666 5664 5663 5662 5660 5659 5658 5657 5656 5654 5652 5650 5649 5648 5646 5645 5644 5642 5642 5640 5640 5638 5637 5636 5634 5633 5632 5630 5629 5628 5627 5626 5624 5624 5622 5620 5619 5618 5616 5614 5613 5612 5610
5710 5709 5708 5707 5708 5708 5709 5707 5704 5703 5703 5704 5704 5702 5699 5697 5696 5696 5696 5695 5694 5694 5693 5692 5691 5690 5689 5688 5686 5684 5682 5680 5679 5678 5676 5674 5672 5670 5668 5666 5665 5664 5662 5660 5658 5657 5656 5654 5653 5652 5650 5649 5648 5646 5644 5643 5642 5641 5640 5638 5638 5636 5636 5634 5633 5632 5631 5630 5628 5627 5626 5625 5624 5624 5622 5621 5620 5618 5617 5616 5614 5612 5611 5610 5608
5704 5702 5702 5701 5701 5702 5702 5702 5700 5699 5698 5696 5696 5694 5693 5692 5690 5690 5690 5689 5688 5688 5686 5686 5684 5684 5683 5682 5680 5678 5676 5674 5673 5672 5670 5668 5666 5665 5664 5662 5660 5658 5656 5654 5653 5652 5650 5649 5648 5647 5646 5644 5643 5642 5640 5639 5638 5637 5636 5634 5634 5632 5632 5630 5630 5628 5628 5626 5625 5624 5623 5622 5621 5620 5620 5618 5617 5616 5615 5614 5612 5610 5610 5608 5606
5698 5696 5696 5694 5694 5694 5694 5692 5692 5692 5692 5690 5688 5687 5686 5684 5684 5684 5684 5682 5682 5681 5680 5679 5678 5678 5676 5675 5674 5672 5670 5668 5667 5666 5664 5662 5662 5660 5658 5657 5655 5654 5652 5650 5648 5647 5646 5644 5643 5642 5641 5640 5638 5637 5636 5634 5634 5632 5632 5630 5630 5628 5628 5626 5626 5624 5624 5622 5622 5620 5620 5618 5618 5617 5616 5616 5614 5614 5612 5611 5610 5608 5608 5606 5605
5690 5690 5688 5687 5686 5686 5685 5684 5684 5684 5684 5683 5682 5680 5678 5678 5678 5678 5677 5676 5675 5674 5674 5672 5672 5672 5670 5669 5668 5666 5664 5663 5662 5660 5659 5658 5656 5655 5654 5652 5650 5648 5646 5645 5644 5642 5640 5640 5638 5638 5636 5634 5633 5632 5631 5630 5629 5628 5627 5626 5625 5624 5624 5622 5622 5620 5620 5618 5618 5617 5616 5616 5614 5614 5613 5612 5612 5610 5610 5609 5608 5606 5606 5604 5603
5683 5682 5681 5680 5680 5678 5678 5677 5678 5677 5676 5676 5674 5672 5672 5672 5672 5672 5671 5670 5669 5668 5667 5666 5666 5665 5664 5662 5662 5660 5659 5658 5656 5655 5654 5652 5651 5650 5648 5646 5645 5644 5642 5640 5639 5638 5636 5634 5634 5632 5630 5629 5628 5627 5626 5625 5624 5623 5622 5622 5621 5620 5619 5618 5618 5616 5616 5614 5614 5613 5612 5612 5611 5610 5610 5609 5608 5608 5606 5606 5605 5604 5603 5602 5601
5676 5675 5674 5673 5672 5672 5671 5671 5671 5670 5670 5669 5668 5666 5666 5666 5667 5666 5665 5664 5663 5662 5661 5660 5660 5658 5658 5656 5656 5655 5654 5652 5651 5650 5649 5648 5646 5645 5644 5642 5640 5638 5636 5636 5634 5633 5632 5630 5628 5627 5626 5624 5624 5622 5622 5620 5620 5619 5618 5618 5616 5616 5615 5614 5614 5612 5612 5610 5610 5609 5608 5608 5607 5606 5606 5606 5605 5604 5604 5603 5602 5602 5601 5600 5599
5668 5668 5667 5666 5666 5665 5665 5664 5664 5664 5663 5662 5662 5660 5660 5661 5660 5660 5659 5658 5657 5656 5656 5654 5654 5654 5652 5652 5651 5650 5648 5648 5646 5646 5644 5643 5642 5640 5638 5636 5635 5633 5632 5630 5629 5628 5627 5626 5624 5622 5622 5620 5620 5618 5618 5616 5616 5615 5614 5614 5613 5612 5612 5610 5610 5608 5608 5606 5606 5605 5604 5603 5602 5602 5602 5602 5602 5601 5600 5600 5600 5599 5598 5598 5597
5662 5661 5661 5660 5660 5660 5660 5659 5658 5658 5657 5657 5656 5656 5656 5655 5654 5654 5653 5652 5652 5651 5650 5650 5649 5648 5648 5646 5646 5644 5644 5643 5642 5641 5640 5638 5637 5636 5634 5632 5630 5628 5627 5626 5624 5624 5622 5622 5620 5618 5618 5616 5616 5614 5614 5613 5612 5612 5610 5610 5609 5608 5608 5606 5606 5604 5604 5602 5602 5600 5600 5598 5598 5598 5598 5598 5598 5598 5597 5596 5596 5596 5596 5595 5594
5656 5655 5655 5654 5654 5654 5654 5653 5652 5652 5652 5652 5652 5651 5650 5649 5648 5648 5648 5647 5646 5646 5645 5644 5644 5643 5642 5642 5641 5640 5640 5638 5638 5636 5636 5634 5633 5631 5630 5628 5626 5624 5623 5621 5620 5620 5618 5618 5616 5614 5614 5613 5612 5611 5610 5610 5608 5608 5607 5606 5606 5604 5604 5603 5602 5600 5600 5598 5597 5596 5595 5594 5594 5593 5593 5593 5594 5594 5594 5593 5593 5592 5592 5592 5592
5650 5650 5649 5648 5648 5648 5649 5648 5647 5646 5647 5647 5646 5646 5645 5644 5644 5643 5642 5642 5642 5640 5640 5639 5638 5638 5638 5637 5636 5636 5636 5634 5634 5632 5632 5630 5629 5628 5626 5624 5622 5620 5618 5617 5616 5615 5614 5614 5612 5611 5610 5610 5608 5608 5607 5606 5605 5604 5604 5602 5602 5601 5600 5599 5598 5596 5596 5594 5594 5592 5592 5590 5590 5589 5589 5589 5590 5590 5590 5590 5590 5590 5590 5590 5590
5645 5644 5644 5644 5643 5644 5644 5644 5642 5642 5642 5642 5641 5640 5640 5639 5638 5638 5638 5637 5636 5636 5636 5635 5634 5634 5634 5633 5632 5632 5631 5630 5630 5629 5628 5627 5626 5624 5622 5620 5618 5616 5614 5613 5612 5611 5610 5610 5608 5608 5607 5606 5606 5604 5604 5603 5602 5601 5600 5599 5598 5598 5596 5596 5594 5593 5592 5592 5590 5590 5588 5588 5587 5586 5586 5586 5586 5586 5586 5586 5586 5586 5586 5586 5586
5640 5640 5639 5638 5638 5638 5638 5638 5638 5637 5637 5636 5636 5636 5635 5634 5634 5634 5633 5632 5632 5632 5631 5630 5630 5630 5629 5628 5628 5628 5628 5627 5626 5625 5624 5624 5622 5620 5618 5616 5614 5613 5611 5610 5608 5607 5606 5606 5605 5604 5603 5602 5602 5602 5600 5600 5598 5598 5596 5596 5595 5594 5593 5592 5592 5590 5590 5589 5588 5587 5586 5586 5584 5584 5584 5584 5583 5583 5583 5583 5584 5584 5584 5584 5584
5636 5636 5634 5634 5634 5633 5633 5633 5632 5632 5632 5632 5632 5631 5630 5630 5630 5629 5628 5628 5628 5627 5626 5626 5626 5625 5625 5624 5624 5624 5624 5623 5622 5622 5620 5620 5618 5617 5616 5614 5612 5610 5608 5606 5604 5604 5603 5602 5602 5600 5600 5599 5598 5598 5597 5596 5595 5594 5594 5592 5592 5591 5590 5590 5589 5588 5588 5587 5586 5586 5584 5584 5583 5582 5582 5582 5581 5581 5581 5581 5581 5581 5581 5581 5582